Date,TemperatureHighF,TemperatureAvgF,TemperatureLowF,DewpointHighF,DewpointAvgF,DewpointLowF,HumidityHigh,HumidityAvg,HumidityLow,PressureMaxIn,PressureMinIn,WindSpeedMaxMPH,WindSpeedAvgMPH,GustSpeedMaxMPH,PrecipitationSumIn
2013-9-1,77.4,69.2,60.4,66.4,59.4,56.3,93,72,51,30.01,29.78,17,3,19,0.00
2013-9-2,81.7,64.7,49.6,56.8,52.9,48.6,96,69,36,30.09,29.99,12,1,12,0.00
2013-9-3,84.6,69.7,55.0,67.6,59.9,50.9,87,72,53,30.04,29.93,14,2,14,0.00
2013-9-4,89.8,75.8,64.0,67.1,63.9,59.2,91,70,38,30.06,29.97,10,1,10,0.00
2013-9-5,83.7,74.3,68.0,69.6,65.1,61.3,88,74,51,30.08,29.98,16,3,16,0.01
2013-9-6,91.2,77.5,65.5,72.7,66.9,61.0,89,72,47,30.01,29.79,15,3,16,0.00
2013-9-7,89.4,77.7,69.3,72.3,69.7,67.6,95,78,53,29.91,29.75,17,2,19,0.07
2013-9-8,82.0,75.3,69.4,72.1,68.9,65.8,90,81,70,29.92,29.74,15,3,16,0.00
2013-9-9,94.1,79.2,68.4,70.2,67.1,63.9,95,70,40,29.78,29.63,14,2,15,0.08
2013-9-10,77.9,71.9,66.0,66.4,64.8,61.3,94,79,61,29.99,29.76,8,0,8,0.00
2013-9-11,86.4,73.6,62.4,64.4,59.7,52.2,95,66,35,30.09,29.99,11,1,12,0.00
2013-9-12,77.5,68.1,57.7,52.5,48.3,43.7,75,51,32,30.23,30.09,15,2,17,0.00
2013-9-13,76.1,62.9,51.3,50.9,48.8,46.2,88,63,37,30.22,30.02,12,2,13,0.00
2013-9-14,70.7,60.9,52.2,56.1,52.0,47.7,85,73,56,30.03,29.77,19,3,20,0.01
2013-9-15,64.8,59.6,50.5,57.2,53.5,48.6,95,81,69,30.28,29.76,20,4,20,0.00
2013-9-16,69.4,57.3,47.5,52.5,49.3,46.0,96,77,50,30.35,30.16,13,2,15,0.00
2013-9-17,64.9,59.6,54.9,63.1,56.5,49.6,95,90,83,30.16,29.80,17,4,17,0.01
2013-9-18,89.1,75.8,64.9,70.3,67.6,63.1,94,78,51,29.80,29.55,19,4,19,0.00
2013-9-19,74.8,66.1,52.2,68.2,58.2,45.9,92,77,43,29.94,29.53,21,3,22,0.17
2013-9-20,63.7,53.7,44.1,46.9,43.4,39.4,89,70,43,30.03,29.93,12,3,20,0.00
2013-9-21,75.6,57.9,37.9,49.1,43.0,36.3,95,62,32,30.01,29.82,12,2,13,0.00
2013-9-22,83.7,68.2,53.2,53.8,50.8,48.6,88,58,31,29.83,29.66,23,5,25,0.00
2013-9-23,78.1,66.4,55.8,52.2,50.0,46.0,78,58,35,29.78,29.67,24,5,26,0.00
2013-9-24,75.0,63.4,56.8,55.9,52.9,49.6,87,70,45,29.89,29.78,10,1,10,0.00
2013-9-25,77.4,64.9,52.5,57.7,54.6,50.9,95,72,46,29.89,29.68,22,3,22,0.00
2013-9-26,85.3,72.5,61.7,59.7,58.2,56.8,86,63,40,29.73,29.64,26,6,29,0.00
2013-9-27,80.1,70.4,59.4,63.5,59.9,51.6,86,70,52,29.71,29.63,24,4,24,0.22
2013-9-28,63.3,55.0,49.3,54.7,45.6,38.3,94,73,41,29.96,29.60,18,4,19,0.36
2013-9-29,81.3,62.0,45.7,48.4,43.3,39.7,83,55,24,29.97,29.71,16,3,16,0.00
2013-9-30,85.1,69.0,55.8,51.8,47.2,43.3,69,48,24,29.71,29.52,14,3,16,0.00